THORAD AGENA D DEB, 4657

Orbit data source: Space-Track

THORAD AGENA D DEB, 4657 is space debris in SSO originally from a launch on Wed, 08 Apr 1970 UTC launched from the Air Force Western Test Range (AFWTR). Debris objects in space refer to the collection of defunct objects orbiting the Earth. Examples of debris include non-operational satellites, rocket bodies, and fragments generated from explosions, collisions, or faulty payload assembly.

Loading next visibility...
Identifier
4657, 1970-025AR
Orbit
SSO
Country
Flag of USUS
Related business
Manufacturer
Unknown
Mission
Spacecraft
Bus & Motor
Unknown
Mass
Unknown
Launch date (UTC)
1970-04-08 (56 years ago)
Launch vehicle
Unknown
Launch site
Air Force Western Test Range (AFWTR)
Object type
Payload
Rocket body
Debris
Shape & HBR
Unknown shape, 1.1 m
Radar Cross Section
Medium (>0.1 m² and <1 m²)

Expand to show TLE details & history
Last TLE update: 4 hours ago

TLE from 4 hours ago
0 THORAD AGENA D DEB
1  4657U 70025AR  26123.21819904  .00000500  00000-0  60503-3 0  9996
2  4657 100.1107 359.2027 0015765 171.0492 299.1321 13.71937145788551
Epoch: 2026-05-03T05:14Z
TLE epoch observation values (Epoch: 2026-05-03T05:14:12.397Z)
Latitude
67.7453°
Longitude
-94.78334°
Altitude
998.611 km
Speed
7.361 km/s
True Right ascension
13h 39m 34s
True Declination
67° 37' 42"
Sunlit
Object was in daylight at epoch
Visualization orbit readout
Latitude
Unknown
Longitude
Unknown
Altitude
Unknown
Speed
Unknown
Apparent Right ascension
Unknown
Apparent Declination
Unknown
Sunlit
N/A
Visualization observer readout
Local Sidereal Time
17:23:18
Azimuth
Unknown
Elevation
Unknown
Doppler factor
Unknown
Orbital elements
Apogee altitude
1,001.534 km
Perigee altitude
978.303 km
Semi-major axis
7,368.055 km
Eccentricity
0.00158
Inclination
100.1107°
RAAN
359.2027°
Arg. of periapsis
171.0492°
True anomaly
298.97415°
Mean anomaly
299.1321°
Eccentric anomaly
299.05314°
Mean motion
3.43174 °/min
Orbital period
104.9 mins
BSTAR
0.00060503
Loading maneuver chart data...
Computing Atmospheric mass density...

Documentation

Showing up to 5 results
|